TimeCST,TemperatureF,Dew PointF,Humidity,Sea Level PressureIn,VisibilityMPH,Wind Direction,Wind SpeedMPH,Gust SpeedMPH,PrecipitationIn,Events,Conditions,WindDirDegrees,DateUTC
12:00 AM,-1,-10,53,30.21,9,Calm,Calm,,,,,,2013-01-18 06:00:00
12:00 AM,-0.4,-9.4,66,30.21,15.0,SSE,11.5,-,N/A,,Overcast,150,2013-01-18 06:00:00
1:00 AM,-0.4,-7.6,72,30.18,15.0,SSE,9.2,-,N/A,,Overcast,160,2013-01-18 07:00:00
1:22 AM,-0.4,-5.8,78,30.17,2.0,SSE,9.2,-,N/A,Snow,Light Snow,150,2013-01-18 07:22:00
1:47 AM,-0.4,-4.0,85,30.15,1.2,SE,11.5,-,N/A,Snow,Light Snow,140,2013-01-18 07:47:00
2:00 AM,-0.4,-4.0,85,30.14,1.2,SE,10.4,-,N/A,Snow,Light Snow,130,2013-01-18 08:00:00
3:00 AM,1.4,-4.0,78,30.10,1.2,SE,11.5,-,N/A,Snow,Light Snow,130,2013-01-18 09:00:00
3:30 AM,1.4,-4.0,78,30.08,2.0,SE,10.4,-,N/A,Snow,Light Snow,130,2013-01-18 09:30:00
4:00 AM,1.4,-2.2,85,30.06,6.0,ESE,11.5,-,N/A,Snow,Light Snow,120,2013-01-18 10:00:00
5:00 AM,3.2,-0.4,85,30.01,6.0,ESE,13.8,-,N/A,Snow,Light Snow,120,2013-01-18 11:00:00
6:00 AM,3,-2,70,29.99,9,Calm,Calm,,,,Overcast,,2013-01-18 12:00:00
6:00 AM,3.2,-2.2,78,29.99,8.0,East,12.7,-,N/A,Snow,Light Snow,100,2013-01-18 12:00:00
7:00 AM,3.2,-2.2,78,29.94,4.0,ESE,12.7,-,N/A,Snow,Light Snow,110,2013-01-18 13:00:00
8:00 AM,3.2,-0.4,85,29.94,6.0,East,10.4,-,N/A,Snow,Light Snow,80,2013-01-18 14:00:00
8:13 AM,3.2,-0.4,85,29.95,2.0,East,9.2,-,N/A,Snow,Light Snow,90,2013-01-18 14:13:00
8:25 AM,3.2,-0.4,85,29.95,1.0,East,10.4,-,N/A,Snow,Light Snow,80,2013-01-18 14:25:00
8:49 AM,3.2,-0.4,85,29.95,4.0,East,9.2,-,N/A,Snow,Light Snow,80,2013-01-18 14:49:00
9:00 AM,3.2,-0.4,85,29.95,6.0,East,9.2,-,N/A,Snow,Light Snow,80,2013-01-18 15:00:00
9:29 AM,3.2,-0.4,85,29.95,10.0,East,12.7,-,N/A,Snow,Light Snow,90,2013-01-18 15:29:00
9:51 AM,3.2,-0.4,85,29.94,15.0,East,13.8,-,N/A,,Overcast,100,2013-01-18 15:51:00
10:00 AM,3.2,-0.4,85,29.92,15.0,East,12.7,-,N/A,,Overcast,100,2013-01-18 16:00:00
11:00 AM,5.0,-0.4,78,29.94,15.0,East,8.1,-,N/A,,Overcast,90,2013-01-18 17:00:00
12:00 PM,6,1,69,29.90,9,Calm,Calm,,,,Overcast,,2013-01-18 18:00:00
12:00 PM,6.8,1.4,79,29.90,15.0,East,6.9,-,N/A,,Overcast,90,2013-01-18 18:00:00
12:32 PM,6.8,1.4,79,29.89,10.0,East,4.6,-,N/A,Snow,Light Snow,100,2013-01-18 18:32:00
1:00 PM,6.8,1.4,79,29.86,5.0,East,8.1,-,N/A,Snow,Light Snow,90,2013-01-18 19:00:00
2:00 PM,6.8,1.4,79,29.88,12.0,NNE,8.1,-,N/A,Snow,Light Snow,20,2013-01-18 20:00:00
3:00 PM,6.8,1.4,79,29.87,8.0,NNE,10.4,-,N/A,Snow,Light Snow,30,2013-01-18 21:00:00
3:50 PM,6.8,1.4,79,29.87,2.5,NE,9.2,-,N/A,Snow,Light Snow,50,2013-01-18 21:50:00
4:00 PM,6.8,1.4,79,29.88,2.0,NE,8.1,-,N/A,Snow,Light Snow,50,2013-01-18 22:00:00
4:07 PM,6.8,1.4,79,29.87,3.0,ENE,9.2,-,N/A,Snow,Light Snow,60,2013-01-18 22:07:00
5:00 PM,6.8,1.4,79,29.88,4.0,NE,6.9,-,N/A,Snow,Light Snow,40,2013-01-18 23:00:00
5:16 PM,6.8,1.4,79,29.88,1.5,NE,6.9,-,N/A,Snow,Light Snow,50,2013-01-18 23:16:00
6:00 PM,6,2,73,29.88,2,Calm,Calm,,,,Unknown Precipitation,,2013-01-19 00:00:00
6:00 PM,6.8,1.4,79,29.88,2.5,ENE,6.9,-,N/A,Snow,Light Snow,60,2013-01-19 00:00:00
6:21 PM,5.0,1.4,85,29.87,1.5,ENE,6.9,-,N/A,Snow,Light Snow,60,2013-01-19 00:21:00
6:36 PM,5.0,1.4,85,29.87,2.0,ENE,4.6,-,N/A,Snow,Light Snow,60,2013-01-19 00:36:00
7:00 PM,5.0,1.4,85,29.86,10.0,ENE,6.9,-,N/A,Snow,Light Snow,60,2013-01-19 01:00:00
8:00 PM,6.8,1.4,79,29.85,8.0,East,5.8,-,N/A,Snow,Light Snow,80,2013-01-19 02:00:00
9:00 PM,6.8,3.2,85,29.84,12.0,East,5.8,-,N/A,Snow,Light Snow,90,2013-01-19 03:00:00
10:00 PM,8.6,3.2,79,29.81,15.0,East,8.1,-,N/A,Snow,Light Snow,100,2013-01-19 04:00:00
10:26 PM,8.6,5.0,85,29.80,2.0,ESE,6.9,-,N/A,Snow,Light Snow,110,2013-01-19 04:26:00
10:32 PM,8.6,5.0,85,29.80,1.8,ESE,9.2,-,N/A,Snow,Light Snow,110,2013-01-19 04:32:00
11:00 PM,8.6,5.0,85,29.79,1.8,ESE,8.1,-,N/A,Snow,Light Snow,120,2013-01-19 05:00:00
11:36 PM,8.6,5.0,85,29.78,2.0,ESE,6.9,-,N/A,Snow,Light Snow,120,2013-01-19 05:36:00